Weather History for Ashtabula, OH

Change the Weather History Date:

Thursday, May 29, 2014

  Actual Average (KYNG) Record (KYNG)
Temperature  
Mean Temperature 58 °F 61 °F  
Max Temperature 66 °F 72 °F 91 °F (1942)
Min Temperature 52 °F 50 °F 34 °F (2004)
Degree Days  
Heating Degree Days 7 5  
Month to date heating degree days 242  
Since 1 July heating degree days 6269  
Cooling Degree Days 0 2  
Month to date cooling degree days 26  
Year to date cooling degree days 35  
Growing Degree Days 8 (Base 50)    
Moisture  
Dew Point 50 °F    
Average Humidity 76    
Maximum Humidity 93    
Minimum Humidity 56    
Precipitation  
Precipitation 0.00 in 0.13 in 0.61 in (1974)
Month to date precipitation 3.53  
Year to date precipitation 14.53  
Snow  
Snow 0.00 in 0.00 in - ()
Month to date snowfall 0.0  
Since 1 July snowfall 62.7  
Snow Depth -    
Sea Level Pressure  
Sea Level Pressure 30.12 in    
Wind  
Wind Speed 5 mph (NNE)    
Max Wind Speed 12 mph    
Max Gust Speed 18 mph    
Visibility 10 miles    
Events      
T = Trace of Precipitation, MM = Missing Value Source: NWS Daily Summary

Daily Weather History Graph

Daily Weather History Graph

Search for Another Location

Airport:

Trip Planner

Search our weather history database for the weather conditions in past years. The results will help you decide how hot, cold, wet, or windy it might be!

Date:

Astronomy

May. 29, 2014 Rise Set
Actual Time 5:51 AM EDT 8:48 PM EDT
Civil Twilight 5:18 AM EDT 9:22 PM EDT
Nautical Twilight 4:36 AM EDT 10:04 PM EDT
Astronomical Twilight 3:47 AM EDT 10:53 PM EDT
Moon 6:45 AM EDT (5/29) 9:37 PM EDT (5/29)
Length of Visible Light 16h 03m
Length of Day
14h 56m
New Moon, 1% of the Moon is Illuminated
May 29
New Moon
Jun 5
First Quarter
Jun 13
Full
Jun 19
Last Quarter
Jun 27
New

Hourly Weather History & Observations

Time (EDT) Temp. Dew Point Humidity Pressure Visibility Wind Dir Wind Speed Gust Speed Precip Events Conditions
12:53 AM 57.0 °F 48.9 °F 74% 30.08 in 10.0 mi ENE 8.1 mph - N/A   Mostly Cloudy
2:53 AM 53.1 °F 48.9 °F 86% 30.06 in 10.0 mi Calm Calm - N/A   Clear
5:53 AM 52.0 °F 48.9 °F 89% 30.08 in 10.0 mi Calm Calm - N/A   Clear
6:02 AM 52.0 °F 48.9 °F 89% 30.08 in 9.0 mi Calm Calm - N/A   Scattered Clouds
6:11 AM 52.0 °F 48.9 °F 89% 30.09 in 9.0 mi North 3.5 mph - N/A   Mostly Cloudy
6:20 AM 53.1 °F 50.0 °F 89% 30.09 in 6.0 mi Variable 3.5 mph - N/A   Overcast
6:33 AM 53.1 °F 51.1 °F 93% 30.09 in 4.0 mi Variable 4.6 mph - N/A   Overcast
6:53 AM 54.0 °F 51.1 °F 90% 30.09 in 8.0 mi Variable 3.5 mph - N/A   Overcast
7:08 AM 54.0 °F 51.1 °F 90% 30.10 in 10.0 mi Variable 3.5 mph - N/A   Mostly Cloudy
7:21 AM 55.0 °F 51.1 °F 86% 30.10 in 10.0 mi Variable 4.6 mph - N/A   Mostly Cloudy
7:53 AM 55.9 °F 51.1 °F 84% 30.10 in 10.0 mi NNE 4.6 mph - N/A   Mostly Cloudy
8:53 AM 55.9 °F 51.1 °F 84% 30.11 in 10.0 mi North 4.6 mph - N/A   Mostly Cloudy
9:15 AM 57.9 °F 51.1 °F 78% 30.12 in 10.0 mi NW 5.8 mph - N/A   Mostly Cloudy
9:53 AM 61.0 °F 52.0 °F 72% 30.12 in 10.0 mi NNW 6.9 mph - N/A   Mostly Cloudy
10:05 AM 60.1 °F 52.0 °F 75% 30.12 in 10.0 mi Variable 5.8 mph - N/A   Scattered Clouds
10:19 AM 60.1 °F 52.0 °F 75% 30.12 in 10.0 mi NNW 8.1 mph - N/A   Mostly Cloudy
10:53 AM 61.0 °F 52.0 °F 72% 30.13 in 10.0 mi North 10.4 mph - N/A   Scattered Clouds
11:13 AM 60.1 °F 51.1 °F 72% 30.14 in 10.0 mi North 10.4 mph - N/A   Mostly Cloudy
11:20 AM 60.1 °F 51.1 °F 72% 30.14 in 10.0 mi Variable 6.9 mph - N/A   Scattered Clouds
11:27 AM 60.1 °F 51.1 °F 72% 30.14 in 10.0 mi NNE 8.1 mph - N/A   Mostly Cloudy
11:53 AM 61.0 °F 51.1 °F 70% 30.14 in 10.0 mi North 8.1 mph - N/A   Mostly Cloudy
12:53 PM 60.1 °F 50.0 °F 69% 30.15 in 10.0 mi NNE 8.1 mph - N/A   Overcast
1:53 PM 62.1 °F 51.1 °F 67% 30.13 in 10.0 mi Variable 4.6 mph - N/A   Overcast
2:13 PM 62.1 °F 50.0 °F 65% 30.14 in 10.0 mi North 9.2 mph - N/A   Scattered Clouds
2:49 PM 62.6 °F 51.8 °F 68% 30.15 in 10.0 mi NNE 10.4 mph 18.4 mph N/A   Mostly Cloudy
2:53 PM 63.0 °F 51.1 °F 65% 30.15 in 10.0 mi Variable 6.9 mph 18.4 mph N/A   Mostly Cloudy
3:27 PM 62.1 °F 50.0 °F 65% 30.14 in 10.0 mi NNE 11.5 mph 18.4 mph N/A   Partly Cloudy
3:53 PM 63.0 °F 50.0 °F 63% 30.12 in 10.0 mi Variable 6.9 mph - N/A   Clear
4:53 PM 64.9 °F 48.9 °F 56% 30.09 in 10.0 mi ENE 8.1 mph - N/A   Clear
6:53 PM 63.0 °F 48.9 °F 60% 30.10 in 10.0 mi NNE 10.4 mph 18.4 mph N/A   Clear
7:53 PM 61.0 °F 48.9 °F 64% 30.12 in 10.0 mi Variable 5.8 mph - N/A   Clear
8:28 PM 60.1 °F 50.0 °F 69% 30.12 in 10.0 mi Calm Calm - N/A   Partly Cloudy
8:53 PM 57.9 °F 48.9 °F 72% 30.12 in 10.0 mi NNE 3.5 mph - N/A   Clear
9:53 PM 54.0 °F 50.0 °F 86% 30.13 in 10.0 mi NNE 3.5 mph - N/A   Clear
10:53 PM 52.0 °F 48.9 °F 89% 30.15 in 10.0 mi North 3.5 mph - N/A   Clear
11:53 PM 53.1 °F 48.9 °F 86% 30.16 in 6.0 mi Calm Calm - N/A   Clear